User: anonymous   Login
Location: General Nathan Twining Observatory
(34.5931°N, 106.8201°W)
Time: 03:33:14
(UTC-07:00)
Language:

Iridium 2 - Orbit

View from above orbital plane
View from above orbital plane
View from above satellite
View from above satellite

Ground track
Ground track

The orbit data is extracted from the following two-line orbital elements,

1 25527U 98066A   14330.22436145  .00008383  00000-0  51818-3 0  4564
2 25527 085.5329 221.3775 0008461 273.0127 242.9254 15.09682971876550
Epoch (UTC): 26 November 2014 05:23:04
Eccentricity: 0.0008461
inclination: 85.5329°
perigee height: 531 km
apogee height: 543 km
right ascension of ascending node: 221.3775°
argument of perigee: 273.0127°
revolutions per day: 15.09682971
mean anomaly at epoch: 242.9254°
orbit number at epoch: 87655

The dashed part of the orbit path shows where the satellite is in the earth's shadow,  

DLR